Regional Weather Roundup
Issued by NWS

Home | Current Version | Previous Version | Graphics & Text | Print | Product List | Glossary On
Versions: 1 2 3 4 5 6 7 8 9 10 11 12 13 14 15 16 17 18 19 20 21 22 23 24 25 26 27 28 29 30 31 32 33 34 35 36 37 38 39 40 41 42 43 44 45 46 47 48 49 50
000
ASUS43 KLOT 260200
RWRIL

ILLINOIS REGIONAL WEATHER ROUNDUP
NATIONAL WEATHER SERVICE CHICAGO/ROMEOVILLE IL
900 PM CDT SAT APR 25 2015

NOTE: "FAIR" INDICATES FEW OR NO CLOUDS BELOW 12,000 FEET WITH NO
SIGNIFICANT WEATHER AND/OR OBSTRUCTIONS TO VISIBILITY.

* THESE STATIONS ARE NOT UNDER NWS QUALITY CONTROL. THEY ALSO MAY NOT
  REPORT WEATHER SUCH AS PRECIPITATION OR FOG.

ILZ001-002-007-009-015-016-024-260300-
NORTHWEST ILLINOIS

CITY           SKY/WX    TMP DP  RH WIND       PRES   REMARKS
MOLINE         CLOUDY    47  38  71 NE10      29.83R
STERLING*      CLOUDY    45  36  70 NE12      29.84R
$$

ILZ003-004-008-010-011-017-018-260300-
NORTH CENTRAL ILLINOIS

CITY           SKY/WX    TMP DP  RH WIND       PRES   REMARKS
ROCKFORD       CLOUDY    45  29  53 NE10      29.88R
FREEPORT*      CLOUDY    43  34  71 NE9       29.87S
ROCHELLE*      CLOUDY    42  34  73 NE18      29.84R
$$

ILZ005-006-012>014-019>023-260300-
NORTHEAST ILLINOIS

CITY           SKY/WX    TMP DP  RH WIND       PRES   REMARKS
CHICAGO-OHARE  CLOUDY    42  31  64 NE12      29.84R
CHICAGO-MIDWAY CLOUDY    44  34  67 N8        29.84R
AURORA         CLOUDY    44  34  67 NE12      29.83R
LANSING*       CLOUDY    42  36  80 NE8       29.82R
WAUKEGAN       CLOUDY    40  26  57 N9G20     29.85R
DUPAGE AIRPORT CLOUDY    42  31  64 NE13      29.83R
WHEELING       CLOUDY    42  28  57 N10       29.86R
NORTHERLY ISL    N/A     40  34  79 N14         N/A
$$

LMZ740>746-260300-
SOUTHERN LAKE MICHIGAN

STATION/POSITION SKY/WX   TEMP    WIND        PRES    VSBY  WAVE
                          AIR SEA DIR/SP/G                  HT/PER
                          (F)     (DEG/KT/KT) (MB)    (MI)  (FT/S)
HARRISON CRIB              39      10/ 19/ 22   N/A
BURNHAM HARBOR             41     340/ 12/ 16   N/A
CALUMET HARBOR             41     360/ 12/ 15   N/A
BURNS HARBOR               42      10/ 15/ 16 1010.2R
MICHIGAN CITY              43     350/ 12/ 14   N/A
MICHIGAN CITY 6N           40 45   20/ 12/ 14   N/A           1/ 3
$$

ILZ025>027-034>036-040-047-049-050-058-095>099-260300-
WEST-CENTRAL ILLINOIS

CITY           SKY/WX    TMP DP  RH WIND       PRES   REMARKS
QUINCY         CLOUDY    48  44  86 NE17G26   29.74R
MACOMB*        CLOUDY    47  44  90 NE18      29.80R
$$

ILZ028>032-037-038-041>044-048-051>054-059>061-260300-
CENTRAL ILLINOIS

CITY           SKY/WX    TMP DP  RH WIND       PRES   REMARKS
DECATUR        CLOUDY    47  43  86 NE21      29.71R
PEORIA         CLOUDY    48  41  76 NE15G29   29.78R
LINCOLN*       CLOUDY    47  43  86 NE16G25   29.73R
SPRINGFIELD    CLOUDY    48  43  82 NE21      29.72R
TAYLORVILLE    NOT AVBL
$$

ILZ033-039-045-046-055>057-062-063-260300-
EAST-CENTRAL ILLINOIS

CITY           SKY/WX    TMP DP  RH WIND       PRES   REMARKS
CHAMPAIGN      CLOUDY    45  43  93 NE21G31   29.70R FOG
MATTOON        CLOUDY    46  43  89 NE21G28   29.67R
$$

ILZ079-100>102-260300-
SOUTHWEST ILLINOIS

CITY           SKY/WX    TMP DP  RH WIND       PRES   REMARKS
CAHOKIA*       CLOUDY    56  52  86 N15       29.65R
SPARTA*        CLOUDY    56  55  97 N12       29.63R
$$

ILZ064>066-069>071-074>076-080>082-084>086-088>090-092>094-260300-
SOUTH-CENTRAL ILLINOIS

CITY           SKY/WX    TMP DP  RH WIND       PRES   REMARKS
CARBONDALE     CLOUDY    61  58  90 NW8       29.59R
MT. VERNON     CLOUDY    55  50  82 N7        29.62R
SALEM*         CLOUDY    55  51  89 N13G21    29.64R
$$

ILZ067-068-072-073-078-083-087-091-260300-
SOUTHEAST ILLINOIS

CITY           SKY/WX    TMP DP  RH WIND       PRES   REMARKS
LAWRENCEVILLE  CLOUDY    50  48  93 N16       29.63R
FLORA*         CLOUDY    52  50  93 N15       29.63R
HARRISBURG*    LGT RAIN  59  59 100 N7        29.58R
ROBINSON*      CLOUDY    48  46  93 NE16      29.65R
CARMI*         CLOUDY    56  52  86 N10       29.58R
$$

ABBREVIATIONS USED IN REMARKS
   TC - TEMPERATURE IN CELSIUS
  WCI - WIND CHILL INDEX
   HX - HEAT INDEX
  VSB - VISIBILITY
$$




USA.gov is the U.S. government's official web portal to all federal, state and local government web resources and services.